Time,TemperatureF,DewpointF,PressureIn,WindDirection,WindDirectionDegrees,WindSpeedMPH,WindSpeedGustMPH,Humidity,HourlyPrecipIn,Conditions,Clouds,dailyrainin,SoftwareType,DateUTC
2013-02-19 00:01:00,19.0,9.0,29.88,SE,135,2.0,4.0,63,0.00,,,0.00,,2013-02-19 07:01:00,
2013-02-19 00:11:00,19.0,9.0,29.88,SE,135,2.0,4.0,63,0.00,,,0.00,,2013-02-19 07:11:00,
2013-02-19 00:21:00,19.0,9.0,29.88,SSE,157,4.0,6.0,63,0.00,,,0.00,,2013-02-19 07:21:00,
2013-02-19 00:31:00,17.0,8.0,29.87,South,180,0.0,1.0,68,0.00,,,0.00,,2013-02-19 07:31:00,
2013-02-19 00:41:00,17.0,8.0,29.87,South,180,0.0,1.0,68,0.00,,,0.00,,2013-02-19 07:41:00,
2013-02-19 00:52:00,17.0,6.0,29.85,SSE,157,2.0,2.0,61,0.00,,,0.00,,2013-02-19 07:52:00,
2013-02-19 01:01:00,18.0,8.0,29.85,East,90,3.0,4.0,65,0.00,,,0.00,,2013-02-19 08:01:00,
2013-02-19 01:11:00,18.0,8.0,29.85,East,90,3.0,4.0,65,0.00,,,0.00,,2013-02-19 08:11:00,
2013-02-19 01:21:00,16.0,8.0,29.85,SE,135,2.0,2.0,70,0.00,,,0.00,,2013-02-19 08:21:00,
2013-02-19 01:31:00,15.0,7.0,29.85,ESE,112,3.0,5.0,71,0.00,,,0.00,,2013-02-19 08:31:00,
2013-02-19 01:41:00,15.0,7.0,29.85,ESE,112,3.0,5.0,71,0.00,,,0.00,,2013-02-19 08:41:00,
2013-02-19 01:52:00,15.0,7.0,29.85,SSE,157,2.0,2.0,70,0.00,,,0.00,,2013-02-19 08:52:00,
2013-02-19 02:01:00,16.0,7.0,29.85,SE,135,2.0,2.0,68,0.00,,,0.00,,2013-02-19 09:01:00,
2013-02-19 02:11:00,16.0,7.0,29.85,SE,135,2.0,2.0,68,0.00,,,0.00,,2013-02-19 09:11:00,
2013-02-19 02:21:00,15.0,7.0,29.85,ESE,112,4.0,5.0,70,0.00,,,0.00,,2013-02-19 09:21:00,
2013-02-19 02:31:00,15.0,6.0,29.85,SSE,157,2.0,4.0,68,0.00,,,0.00,,2013-02-19 09:31:00,
2013-02-19 02:41:00,15.0,6.0,29.85,SSE,157,2.0,4.0,68,0.00,,,0.00,,2013-02-19 09:41:00,
2013-02-19 02:52:00,14.0,6.0,29.85,SSE,157,2.0,2.0,71,0.00,,,0.00,,2013-02-19 09:52:00,
2013-02-19 03:01:00,15.0,6.0,29.85,SE,135,3.0,5.0,68,0.00,,,0.00,,2013-02-19 10:01:00,
2013-02-19 03:11:00,15.0,6.0,29.85,SE,135,3.0,5.0,68,0.00,,,0.00,,2013-02-19 10:11:00,
2013-02-19 03:21:00,13.0,6.0,29.84,SSE,157,3.0,4.0,74,0.00,,,0.00,,2013-02-19 10:21:00,
2013-02-19 03:31:00,14.0,7.0,29.84,SSE,157,2.0,4.0,74,0.00,,,0.00,,2013-02-19 10:31:00,
2013-02-19 03:41:00,14.0,7.0,29.84,SSE,157,2.0,4.0,74,0.00,,,0.00,,2013-02-19 10:41:00,
2013-02-19 03:52:00,12.0,7.0,29.83,ESE,112,2.0,4.0,79,0.00,,,0.00,,2013-02-19 10:52:00,
2013-02-19 04:01:00,13.0,6.0,29.83,ESE,112,5.0,6.0,74,0.00,,,0.00,,2013-02-19 11:01:00,
2013-02-19 04:11:00,13.0,6.0,29.83,ESE,112,5.0,6.0,74,0.00,,,0.00,,2013-02-19 11:11:00,
2013-02-19 04:21:00,13.0,6.0,29.83,ESE,112,5.0,6.0,74,0.00,,,0.00,,2013-02-19 11:21:00,
2013-02-19 04:31:00,12.0,6.0,29.82,SE,135,2.0,3.0,77,0.00,,,0.00,,2013-02-19 11:31:00,
2013-02-19 04:41:00,12.0,6.0,29.82,SE,135,2.0,3.0,77,0.00,,,0.00,,2013-02-19 11:41:00,
2013-02-19 04:51:00,12.0,7.0,29.81,SSE,157,2.0,3.0,79,0.00,,,0.00,,2013-02-19 11:51:00,
2013-02-19 05:01:00,13.0,6.0,29.81,SE,135,2.0,4.0,72,0.00,,,0.00,,2013-02-19 12:01:00,
2013-02-19 05:12:00,13.0,6.0,29.81,SE,135,2.0,4.0,72,0.00,,,0.00,,2013-02-19 12:12:00,
2013-02-19 05:21:00,13.0,6.0,29.81,SE,135,2.0,2.0,72,0.00,,,0.00,,2013-02-19 12:21:00,
2013-02-19 05:32:00,13.0,5.0,29.81,ESE,112,4.0,6.0,71,0.00,,,0.00,,2013-02-19 12:32:00,
2013-02-19 05:41:00,13.0,5.0,29.81,ESE,112,4.0,6.0,71,0.00,,,0.00,,2013-02-19 12:41:00,
2013-02-19 05:52:00,12.0,5.0,29.81,East,90,5.0,6.0,72,0.00,,,0.00,,2013-02-19 12:52:00,
2013-02-19 06:01:00,12.0,5.0,29.81,SSE,157,2.0,4.0,72,0.00,,,0.00,,2013-02-19 13:01:00,
2013-02-19 06:11:00,12.0,5.0,29.81,SSE,157,2.0,4.0,72,0.00,,,0.00,,2013-02-19 13:11:00,
2013-02-19 06:21:00,13.0,5.0,29.81,SE,135,1.0,2.0,69,0.00,,,0.00,,2013-02-19 13:21:00,
2013-02-19 06:31:00,12.0,5.0,29.81,SE,135,2.0,2.0,72,0.00,,,0.00,,2013-02-19 13:31:00,
2013-02-19 06:41:00,12.0,5.0,29.81,SE,135,2.0,2.0,72,0.00,,,0.00,,2013-02-19 13:41:00,
2013-02-19 06:52:00,12.0,4.0,29.80,SE,135,2.0,4.0,68,0.00,,,0.00,,2013-02-19 13:52:00,
2013-02-19 07:01:00,13.0,3.0,29.80,SE,135,2.0,2.0,64,0.00,,,0.00,,2013-02-19 14:01:00,
2013-02-19 07:11:00,13.0,3.0,29.80,SE,135,2.0,2.0,64,0.00,,,0.00,,2013-02-19 14:11:00,
2013-02-19 07:21:00,11.0,4.0,29.80,South,180,2.0,3.0,73,0.00,,,0.00,,2013-02-19 14:21:00,
2013-02-19 07:32:00,10.0,3.0,29.80,South,180,3.0,4.0,73,0.00,,,0.00,,2013-02-19 14:32:00,
2013-02-19 07:41:00,10.0,3.0,29.80,South,180,3.0,4.0,73,0.00,,,0.00,,2013-02-19 14:41:00,
2013-02-19 07:52:00,12.0,5.0,29.81,South,180,2.0,2.0,72,0.00,,,0.00,,2013-02-19 14:52:00,
2013-02-19 08:01:00,15.0,7.0,29.82,South,180,2.0,2.0,69,0.00,,,0.00,,2013-02-19 15:01:00,
2013-02-19 08:11:00,15.0,7.0,29.82,South,180,2.0,2.0,69,0.00,,,0.00,,2013-02-19 15:11:00,
2013-02-19 08:21:00,16.0,7.0,29.82,South,180,3.0,4.0,66,0.00,,,0.00,,2013-02-19 15:21:00,
2013-02-19 08:31:00,19.0,9.0,29.83,South,180,2.0,4.0,63,0.00,,,0.00,,2013-02-19 15:31:00,
2013-02-19 08:41:00,19.0,9.0,29.83,South,180,2.0,4.0,63,0.00,,,0.00,,2013-02-19 15:41:00,
2013-02-19 08:52:00,21.0,9.0,29.83,SSE,157,2.0,3.0,60,0.00,,,0.00,,2013-02-19 15:52:00,
2013-02-19 09:01:00,23.0,9.0,29.83,South,180,4.0,6.0,54,0.00,,,0.00,,2013-02-19 16:01:00,
2013-02-19 09:11:00,23.0,9.0,29.83,South,180,4.0,6.0,54,0.00,,,0.00,,2013-02-19 16:11:00,
2013-02-19 09:21:00,27.0,8.0,29.83,SE,135,3.0,5.0,44,0.00,,,0.00,,2013-02-19 16:21:00,
2013-02-19 09:31:00,29.0,8.0,29.84,SSE,157,1.0,2.0,41,0.00,,,0.00,,2013-02-19 16:31:00,
2013-02-19 09:41:00,29.0,8.0,29.84,SSE,157,1.0,2.0,41,0.00,,,0.00,,2013-02-19 16:41:00,
2013-02-19 09:51:00,29.0,7.0,29.84,SSW,202,2.0,3.0,39,0.00,,,0.00,,2013-02-19 16:51:00,
2013-02-19 10:01:00,32.0,7.0,29.84,WSW,247,3.0,4.0,35,0.00,,,0.00,,2013-02-19 17:01:00,
2013-02-19 10:11:00,32.0,7.0,29.84,WSW,247,3.0,4.0,35,0.00,,,0.00,,2013-02-19 17:11:00,
2013-02-19 10:21:00,34.0,5.0,29.84,North,360,1.0,2.0,29,0.00,,,0.00,,2013-02-19 17:21:00,
2013-02-19 10:31:00,36.0,4.0,29.84,ENE,67,1.0,2.0,26,0.00,,,0.00,,2013-02-19 17:31:00,
2013-02-19 10:41:00,36.0,4.0,29.84,East,90,1.0,2.0,26,0.00,,,0.00,,2013-02-19 17:41:00,
2013-02-19 10:51:00,36.0,4.0,29.84,East,90,1.0,2.0,26,0.00,,,0.00,,2013-02-19 17:51:00,
2013-02-19 11:01:00,38.0,6.0,29.84,NE,45,4.0,6.0,26,0.00,,,0.00,,2013-02-19 18:01:00,
2013-02-19 11:11:00,38.0,6.0,29.84,NE,45,4.0,6.0,26,0.00,,,0.00,,2013-02-19 18:11:00,
2013-02-19 11:21:00,39.0,5.0,29.84,NE,45,4.0,6.0,24,0.00,,,0.00,,2013-02-19 18:21:00,
2013-02-19 11:31:00,41.0,6.0,29.84,SE,135,4.0,6.0,23,0.00,,,0.00,,2013-02-19 18:31:00,
2013-02-19 11:41:00,41.0,5.0,29.83,NE,45,13.0,17.0,22,0.00,,,0.00,,2013-02-19 18:41:00,
2013-02-19 11:52:00,41.0,5.0,29.83,NE,45,13.0,17.0,22,0.00,,,0.00,,2013-02-19 18:52:00,
2013-02-19 12:01:00,42.0,7.0,29.82,ENE,67,13.0,19.0,23,0.00,,,0.00,,2013-02-19 19:01:00,
2013-02-19 12:11:00,42.0,7.0,29.82,ENE,67,13.0,19.0,23,0.00,,,0.00,,2013-02-19 19:11:00,
2013-02-19 12:21:00,42.0,5.0,29.80,East,90,10.0,14.0,21,0.00,,,0.00,,2013-02-19 19:21:00,
2013-02-19 12:31:00,44.0,6.0,29.80,ENE,67,15.0,19.0,20,0.00,,,0.00,,2013-02-19 19:31:00,
2013-02-19 12:41:00,44.0,6.0,29.80,ENE,67,15.0,19.0,20,0.00,,,0.00,,2013-02-19 19:41:00,
2013-02-19 12:51:00,44.0,6.0,29.79,East,90,14.0,18.0,20,0.00,,,0.00,,2013-02-19 19:51:00,
2013-02-19 13:01:00,44.0,6.0,29.78,ENE,67,13.0,17.0,20,0.00,,,0.00,,2013-02-19 20:01:00,
2013-02-19 13:11:00,44.0,6.0,29.78,ENE,67,13.0,17.0,20,0.00,,,0.00,,2013-02-19 20:11:00,
2013-02-19 13:21:00,45.0,4.0,29.77,ENE,67,14.0,17.0,18,0.00,,,0.00,,2013-02-19 20:21:00,
2013-02-19 13:31:00,45.0,5.0,29.76,East,90,16.0,21.0,19,0.00,,,0.00,,2013-02-19 20:31:00,
2013-02-19 13:41:00,45.0,5.0,29.76,East,90,16.0,21.0,19,0.00,,,0.00,,2013-02-19 20:41:00,
2013-02-19 13:52:00,46.0,6.0,29.75,East,90,14.0,17.0,19,0.00,,,0.00,,2013-02-19 20:52:00,
2013-02-19 14:01:00,46.0,5.0,29.75,ENE,67,14.0,17.0,18,0.00,,,0.00,,2013-02-19 21:01:00,
2013-02-19 14:11:00,46.0,5.0,29.75,ENE,67,14.0,17.0,18,0.00,,,0.00,,2013-02-19 21:11:00,
2013-02-19 14:21:00,45.0,4.0,29.74,ENE,67,14.0,16.0,18,0.00,,,0.00,,2013-02-19 21:21:00,
2013-02-19 14:31:00,45.0,5.0,29.74,East,90,11.0,13.0,19,0.00,,,0.00,,2013-02-19 21:31:00,
2013-02-19 14:42:00,45.0,5.0,29.74,East,90,11.0,13.0,19,0.00,,,0.00,,2013-02-19 21:42:00,
2013-02-19 14:51:00,45.0,5.0,29.74,East,90,11.0,14.0,19,0.00,,,0.00,,2013-02-19 21:51:00,
2013-02-19 15:01:00,45.0,5.0,29.72,ENE,67,12.0,16.0,19,0.00,,,0.00,,2013-02-19 22:01:00,
2013-02-19 15:11:00,45.0,5.0,29.72,ENE,67,12.0,16.0,19,0.00,,,0.00,,2013-02-19 22:11:00,
2013-02-19 15:21:00,45.0,6.0,29.72,East,90,10.0,13.0,20,0.00,,,0.00,,2013-02-19 22:21:00,
2013-02-19 15:31:00,45.0,5.0,29.72,ENE,67,9.0,12.0,19,0.00,,,0.00,,2013-02-19 22:31:00,
2013-02-19 15:41:00,45.0,5.0,29.72,ENE,67,9.0,12.0,19,0.00,,,0.00,,2013-02-19 22:41:00,
2013-02-19 15:52:00,45.0,5.0,29.72,ENE,67,9.0,12.0,19,0.00,,,0.00,,2013-02-19 22:52:00,
2013-02-19 16:01:00,45.0,6.0,29.71,East,90,7.0,9.0,20,0.00,,,0.00,,2013-02-19 23:01:00,
2013-02-19 16:11:00,45.0,6.0,29.71,East,90,7.0,9.0,20,0.00,,,0.00,,2013-02-19 23:11:00,
2013-02-19 16:21:00,45.0,7.0,29.71,East,90,6.0,9.0,21,0.00,,,0.00,,2013-02-19 23:21:00,
2013-02-19 16:31:00,45.0,6.0,29.71,East,90,5.0,6.0,20,0.00,,,0.00,,2013-02-19 23:31:00,
2013-02-19 16:41:00,45.0,6.0,29.71,East,90,5.0,6.0,20,0.00,,,0.00,,2013-02-19 23:41:00,
2013-02-19 16:51:00,44.0,7.0,29.71,East,90,6.0,7.0,21,0.00,,,0.00,,2013-02-19 23:51:00,
2013-02-19 17:01:00,43.0,8.0,29.70,East,90,2.0,3.0,23,0.00,,,0.00,,2013-02-20 00:01:00,
2013-02-19 17:11:00,43.0,8.0,29.70,East,90,2.0,3.0,23,0.00,,,0.00,,2013-02-20 00:11:00,
2013-02-19 17:21:00,42.0,7.0,29.69,SE,135,2.0,4.0,23,0.00,,,0.00,,2013-02-20 00:21:00,
2013-02-19 17:31:00,41.0,8.0,29.67,ESE,112,5.0,6.0,25,0.00,,,0.00,,2013-02-20 00:31:00,
2013-02-19 17:41:00,41.0,8.0,29.67,ESE,112,5.0,6.0,25,0.00,,,0.00,,2013-02-20 00:41:00,
2013-02-19 17:52:00,40.0,8.0,29.67,ESE,112,3.0,5.0,26,0.00,,,0.00,,2013-02-20 00:52:00,
2013-02-19 18:02:00,40.0,7.0,29.67,ESE,112,5.0,7.0,25,0.00,,,0.00,,2013-02-20 01:02:00,
2013-02-19 18:11:00,40.0,7.0,29.67,ESE,112,5.0,7.0,25,0.00,,,0.00,,2013-02-20 01:11:00,
2013-02-19 18:21:00,38.0,7.0,29.67,SSE,157,2.0,3.0,27,0.00,,,0.00,,2013-02-20 01:21:00,
2013-02-19 18:31:00,37.0,6.0,29.66,East,90,4.0,6.0,27,0.00,,,0.00,,2013-02-20 01:31:00,
2013-02-19 18:41:00,37.0,6.0,29.66,East,90,4.0,6.0,27,0.00,,,0.00,,2013-02-20 01:41:00,
2013-02-19 18:51:00,37.0,5.0,29.65,ESE,112,4.0,6.0,26,0.00,,,0.00,,2013-02-20 01:51:00,
2013-02-19 19:01:00,36.0,7.0,29.65,ESE,112,1.0,2.0,29,0.00,,,0.00,,2013-02-20 02:01:00,
2013-02-19 19:11:00,36.0,7.0,29.65,ESE,112,1.0,2.0,29,0.00,,,0.00,,2013-02-20 02:11:00,
2013-02-19 19:21:00,34.0,5.0,29.64,SSE,157,1.0,2.0,29,0.00,,,0.00,,2013-02-20 02:21:00,
2013-02-19 19:31:00,34.0,7.0,29.63,South,180,2.0,2.0,32,0.00,,,0.00,,2013-02-20 02:31:00,
2013-02-19 19:41:00,34.0,7.0,29.63,South,180,2.0,2.0,32,0.00,,,0.00,,2013-02-20 02:41:00,
2013-02-19 19:52:00,34.0,7.0,29.62,ESE,112,3.0,4.0,32,0.00,,,0.00,,2013-02-20 02:52:00,
2013-02-19 20:01:00,32.0,9.0,29.62,ESE,112,2.0,2.0,37,0.00,,,0.00,,2013-02-20 03:01:00,
2013-02-19 20:11:00,32.0,9.0,29.62,ESE,112,2.0,2.0,37,0.00,,,0.00,,2013-02-20 03:11:00,
2013-02-19 20:21:00,31.0,8.0,29.61,SE,135,3.0,5.0,38,0.00,,,0.00,,2013-02-20 03:21:00,
2013-02-19 20:31:00,30.0,10.0,29.61,South,180,4.0,4.0,42,0.00,,,0.00,,2013-02-20 03:31:00,
2013-02-19 20:41:00,30.0,10.0,29.61,South,180,4.0,4.0,42,0.00,,,0.00,,2013-02-20 03:41:00,
2013-02-19 20:51:00,30.0,11.0,29.59,ESE,112,1.0,2.0,44,0.00,,,0.00,,2013-02-20 03:51:00,
2013-02-19 21:01:00,29.0,12.0,29.59,SE,135,2.0,2.0,49,0.00,,,0.00,,2013-02-20 04:01:00,
2013-02-19 21:11:00,29.0,12.0,29.59,SE,135,2.0,2.0,49,0.00,,,0.00,,2013-02-20 04:11:00,
2013-02-19 21:21:00,27.0,13.0,29.59,ESE,112,3.0,4.0,54,0.00,,,0.00,,2013-02-20 04:21:00,
2013-02-19 21:31:00,26.0,12.0,29.58,SE,135,2.0,4.0,56,0.00,,,0.00,,2013-02-20 04:31:00,
2013-02-19 21:41:00,26.0,12.0,29.58,SE,135,2.0,4.0,56,0.00,,,0.00,,2013-02-20 04:41:00,
2013-02-19 21:51:00,26.0,13.0,29.57,ESE,112,6.0,7.0,57,0.00,,,0.00,,2013-02-20 04:51:00,
2013-02-19 22:01:00,27.0,13.0,29.57,ESE,112,4.0,6.0,55,0.00,,,0.00,,2013-02-20 05:01:00,
2013-02-19 22:12:00,27.0,13.0,29.57,ESE,112,4.0,6.0,55,0.00,,,0.00,,2013-02-20 05:12:00,
2013-02-19 22:22:00,27.0,14.0,29.57,ESE,112,2.0,4.0,57,0.00,,,0.00,,2013-02-20 05:22:00,
2013-02-19 22:31:00,26.0,12.0,29.56,SE,135,2.0,4.0,56,0.00,,,0.00,,2013-02-20 05:31:00,
2013-02-19 22:42:00,26.0,12.0,29.56,SE,135,2.0,4.0,56,0.00,,,0.00,,2013-02-20 05:42:00,
2013-02-19 22:52:00,26.0,13.0,29.56,East,90,2.0,4.0,58,0.00,,,0.00,,2013-02-20 05:52:00,
2013-02-19 23:01:00,27.0,13.0,29.56,SE,135,4.0,5.0,55,0.00,,,0.00,,2013-02-20 06:01:00,
2013-02-19 23:11:00,24.0,13.0,29.56,East,90,4.0,5.0,63,0.00,,,0.00,,2013-02-20 06:11:00,
2013-02-19 23:21:00,24.0,13.0,29.56,East,90,4.0,5.0,63,0.00,,,0.00,,2013-02-20 06:21:00,
2013-02-19 23:31:00,24.0,13.0,29.56,SW,225,3.0,4.0,63,0.00,,,0.00,,2013-02-20 06:31:00,
2013-02-19 23:41:00,24.0,13.0,29.56,SW,225,3.0,4.0,63,0.00,,,0.00,,2013-02-20 06:41:00,
2013-02-19 23:51:00,25.0,10.0,29.56,ESE,112,5.0,6.0,52,0.00,,,0.00,,2013-02-20 06:51:00,